Anchorage Merrill, AK

12:52 PM AKST on November 21, 2017 (GMT -0900)
Merrill

Weather History for PAMR - August, 2013

Change the Weather History Date:

Saturday, August 3, 2013

  Actual Average Record
Temperature  
Mean Temperature 66 °F -  
Max Temperature 75 °F 66 °F 78 °F (1999)
Min Temperature 60 °F 51 °F 46 °F (1996)
Cooling Degree Days 2    
Growing Degree Days 16 (Base 50)    
Moisture  
Dew Point 50 °F    
Average Humidity 58    
Maximum Humidity 90    
Minimum Humidity 35    
Precipitation  
Precipitation 0.01 in - - ()
Sea Level Pressure  
Sea Level Pressure 29.81 in    
Wind  
Wind Speed 5 mph (WSW)    
Max Wind Speed 13 mph    
Max Gust Speed 23 mph    
Visibility 10 miles    
Events Rain    
Averages and records for this station are not official NWS values.
T = Trace of Precipitation, MM = Missing Value Source: NWS Daily Summary

Daily Weather History Graph

Daily Weather History Graph

Search for Another Location

Airport or City:

Trip Planner

Search our weather history database for the weather conditions in past years. The results will help you decide how hot, cold, wet, or windy it might be!

Date:

Astronomy

Aug. 03, 2013 Rise Set
Actual Time 5:37 AM AKDT 10:31 PM AKDT
Civil Twilight 4:34 AM AKDT 11:33 PM AKDT
Nautical Twilight 2:38 AM AKDT 1:33 AM AKDT
Astronomical Twilight Sun does not rise Sun does not rise
Moon 2:43 AM AKDT (8/3) 8:27 PM AKDT (8/3)
Length of Visible Light 18h 59m
Length of Day
16h 53m
Waning Crescent, 9% of the Moon is Illuminated
Aug 3
Waning Crescent
Aug 6
New
Aug 14
First Quarter
Aug 20
Full
Aug 28
Last Quarter

Hourly Weather History & Observations

Time (AKDT) Temp. Dew Point Humidity Pressure Visibility Wind Dir Wind Speed Gust Speed Precip Events Conditions
12:53 AM 64.0 °F 52.0 °F 65% 29.78 in 10.0 mi Calm Calm - N/A   Overcast
1:53 AM 63.0 °F 53.1 °F 70% 29.76 in 10.0 mi NE 3.5 mph - N/A   Overcast
2:53 AM 60.1 °F 57.0 °F 90% 29.78 in 10.0 mi West 9.2 mph - 0.00 in Rain Light Rain
3:53 AM 60.1 °F 55.9 °F 86% 29.77 in 10.0 mi North 3.5 mph - 0.01 in   Overcast
4:53 AM 60.1 °F 57.0 °F 90% 29.78 in 10.0 mi North 5.8 mph - N/A   Mostly Cloudy
5:53 AM 60.1 °F 55.0 °F 83% 29.79 in 10.0 mi North 4.6 mph - N/A   Mostly Cloudy
6:53 AM 60.1 °F 55.0 °F 83% 29.78 in 10.0 mi Calm Calm - N/A   Overcast
7:53 AM 63.0 °F 55.0 °F 75% 29.77 in 10.0 mi NNW 5.8 mph - N/A   Overcast
8:53 AM 66.0 °F 55.0 °F 68% 29.78 in 10.0 mi WNW 6.9 mph - N/A   Mostly Cloudy
9:53 AM 64.9 °F 53.1 °F 65% 29.78 in 10.0 mi NW 5.8 mph - N/A   Mostly Cloudy
10:53 AM 66.9 °F 46.9 °F 49% 29.78 in 10.0 mi SW 4.6 mph - N/A   Mostly Cloudy
11:53 AM 64.9 °F 55.0 °F 70% 29.78 in 10.0 mi WNW 6.9 mph - N/A   Mostly Cloudy
12:53 PM 73.0 °F 46.9 °F 39% 29.79 in 10.0 mi North 5.8 mph - N/A   Overcast
1:53 PM 70.0 °F 45.0 °F 41% 29.80 in 10.0 mi North 5.8 mph - N/A   Overcast
2:53 PM 73.9 °F 45.0 °F 35% 29.81 in 10.0 mi NE 5.8 mph 21.9 mph N/A   Mostly Cloudy
3:53 PM 69.1 °F 46.9 °F 45% 29.81 in 10.0 mi South 6.9 mph 18.4 mph N/A   Mostly Cloudy
4:53 PM 70.0 °F 46.9 °F 44% 29.82 in 10.0 mi South 6.9 mph 17.3 mph N/A   Overcast
5:53 PM 70.0 °F 46.0 °F 42% 29.83 in 10.0 mi South 12.7 mph 23.0 mph N/A   Overcast
6:53 PM 69.1 °F 45.0 °F 42% 29.84 in 10.0 mi South 9.2 mph 20.7 mph N/A   Overcast
7:53 PM 68.0 °F 45.0 °F 43% 29.84 in 10.0 mi South 10.4 mph 21.9 mph N/A   Mostly Cloudy
8:53 PM 66.9 °F 44.1 °F 44% 29.85 in 10.0 mi South 12.7 mph 20.7 mph N/A   Overcast
9:53 PM 66.9 °F 44.1 °F 44% 29.86 in 10.0 mi South 8.1 mph 19.6 mph N/A   Overcast
10:53 PM 66.0 °F 44.1 °F 45% 29.88 in 10.0 mi South 8.1 mph - N/A   Overcast
11:53 PM 66.0 °F 44.1 °F 45% 29.88 in 10.0 mi South 10.4 mph 18.4 mph N/A   Overcast